Theta_e
351 355 364 364 363 364 364 363 362 361 360 361 361 361 361 362 362 365 364 364 363 364 363 363 363 363 363 363 363 363 362 365 365 363 364 363 362 364 366 367 364 357 364
351 352 364 365 364 364 362 362 362 361 362 360 361 361 362 362 362 363 363 363 364 363 363 363 363 363 363 362 363 363 362 361 364 366 364 364 363 361 366 364 364 360 365
348 352 357 364 362 361 360 360 360 360 360 361 362 362 362 362 362 362 362 362 363 363 363 363 363 363 363 362 362 361 362 362 363 366 367 356 356 363 367 361 365 364 365
344 345 351 363 364 363 363 362 361 360 361 361 361 362 362 362 363 362 363 362 362 365 363 363 363 363 363 361 361 360 359 360 360 362 353 353 352 363 363 363 365 364 364
343 347 355 364 362 362 362 362 362 362 361 362 361 363 363 362 363 363 363 362 363 365 363 362 363 362 361 359 358 358 360 363 364 358 354 352 353 360 362 363 363 364 365
350 350 361 363 362 362 362 361 361 362 361 360 363 363 362 363 363 363 363 363 361 360 361 360 361 362 359 356 355 357 360 363 366 355 354 358 357 365 364 364 364 363 363
351 355 358 365 361 361 361 362 361 361 361 361 362 362 362 363 363 362 362 361 361 359 362 362 363 362 361 358 356 357 359 364 352 355 356 356 357 364 363 364 364 363 362
349 354 354 363 363 362 361 361 361 360 362 361 360 360 361 361 362 363 362 362 361 361 362 361 361 361 361 358 353 357 358 362 354 353 355 355 360 363 364 363 363 363 362
352 350 352 356 361 362 360 361 362 361 361 362 360 359 359 360 361 362 362 361 362 361 360 358 358 359 359 359 355 355 357 362 353 347 352 356 362 363 363 363 363 363 363
349 351 351 358 357 358 356 361 361 361 361 363 359 360 361 360 361 361 362 363 361 359 358 358 357 357 358 359 358 356 357 359 354 352 350 354 362 363 362 362 362 362 362
349 350 353 356 356 356 355 358 361 362 362 363 359 360 360 356 356 358 358 358 361 360 358 357 356 357 360 361 359 358 356 352 352 352 354 361 360 360 361 361 362 362 363
344 349 351 353 353 354 352 359 361 358 360 359 359 356 355 355 352 352 355 357 356 360 359 358 357 357 360 355 355 357 355 357 350 351 353 363 362 357 357 360 359 361 361
344 348 350 355 355 354 357 359 357 359 358 361 361 360 354 353 352 352 353 353 356 358 357 357 356 355 357 352 358 354 358 354 351 352 356 362 364 361 356 358 361 357 359
344 346 353 354 352 358 357 361 355 354 357 356 357 360 358 351 351 355 354 356 358 356 356 354 347 351 352 358 357 357 357 352 351 351 357 363 363 361 360 355 358 360 359
343 343 349 354 356 358 356 354 360 355 356 353 358 355 355 351 353 355 351 350 358 358 355 358 351 353 352 354 357 356 355 353 351 353 355 363 363 363 360 358 353 356 359
343 344 348 350 359 357 364 353 364 355 357 354 355 353 352 354 353 355 355 355 355 351 356 353 352 356 357 352 355 355 355 356 355 351 355 358 362 361 362 360 360 357 354
343 347 348 350 357 362 364 361 363 365 358 354 354 357 354 357 357 351 353 361 360 358 354 356 356 350 352 350 351 356 355 358 356 352 351 354 358 362 360 363 363 361 360
342 347 350 350 352 356 360 361 361 363 362 357 353 357 356 357 358 358 356 354 356 365 362 357 357 352 352 347 347 350 351 354 350 352 354 351 353 353 361 361 362 362 360
343 348 348 351 350 353 365 359 363 363 354 352 357 354 357 361 363 360 359 359 362 363 352 358 358 356 351 350 350 350 352 349 352 349 351 352 353 351 354 362 361 362 360
344 348 353 351 360 361 366 368 356 359 353 350 360 357 361 362 365 363 364 361 361 363 358 356 354 354 350 352 353 348 347 350 352 347 347 351 350 349 352 354 357 358 361
344 346 351 354 363 360 358 359 355 349 354 361 361 363 362 366 366 361 359 361 363 359 357 360 357 350 353 355 346 349 350 349 349 350 349 351 348 349 349 349 351 351 356
342 347 353 357 361 361 362 361 356 360 361 355 366 365 366 367 367 364 366 359 364 362 359 357 356 349 351 348 343 346 335 340 346 349 350 348 347 351 350 351 350 349 351
340 345 351 358 362 364 355 364 364 367 366 359 363 364 366 369 368 366 369 364 356 355 350 353 354 358 349 349 352 341 334 332 338 349 349 349 348 347 350 349 349 351 350
339 345 349 354 361 362 368 362 363 360 347 354 360 366 363 367 366 369 369 357 355 357 352 347 355 355 354 348 344 341 350 341 335 334 344 347 349 347 349 349 347 351 351
341 342 346 352 359 363 365 370 363 362 361 358 361 365 370 370 369 370 370 368 365 359 355 348 353 355 358 344 342 347 351 349 345 340 335 343 349 346 350 349 349 349 349
344 344 344 350 359 364 363 365 366 366 364 364 363 362 362 362 364 364 369 367 369 362 359 359 355 352 355 356 348 351 347 341 340 340 340 341 342 344 349 350 348 350 351
Wind_Speed
14 12 11 14 15 14 13 12 12 11 11 10 11 11 11 13 14 14 15 15 17 16 17 17 17 18 18 17 17 17 17 18 19 21 20 19 18 16 16 18 19 18 19
18 15 12 13 13 14 13 12 10 10 11 11 10 12 13 14 13 16 14 15 17 17 17 17 17 17 17 16 15 15 16 17 20 21 21 18 18 17 17 20 18 17 18
19 16 14 12 13 13 12 11 9 9 11 12 13 12 13 14 15 16 15 15 16 17 17 16 17 16 15 14 14 14 14 12 15 21 19 12 12 18 19 21 19 18 17
18 16 15 12 12 12 13 11 10 9 11 12 12 12 14 14 15 15 16 14 15 15 16 15 16 15 14 13 11 11 11 9 8 3 12 12 14 18 18 17 17 17 17
17 17 15 13 12 12 12 10 10 10 10 11 13 13 14 15 15 15 15 15 14 13 14 15 15 15 13 10 6 7 9 10 7 7 12 11 9 15 17 17 16 15 16
21 18 15 13 11 11 11 10 9 9 10 11 14 13 13 13 14 15 14 14 15 13 13 13 12 14 12 8 7 8 10 10 8 13 13 14 10 14 17 18 17 17 16
19 17 15 12 11 10 9 9 10 9 11 12 14 13 12 12 13 12 12 12 13 12 13 11 13 12 11 8 5 6 10 6 8 8 12 11 9 15 17 17 17 17 15
20 18 14 12 11 10 10 10 9 10 11 13 16 16 13 11 10 13 10 11 11 13 11 12 10 10 9 6 2 6 8 10 14 11 12 9 10 14 17 16 16 15 15
19 18 14 13 11 10 10 11 10 10 11 15 16 15 14 13 12 11 10 11 11 10 10 9 7 6 7 5 1 4 4 5 8 8 12 7 10 15 15 16 14 15 15
12 18 10 11 10 8 9 13 13 12 13 14 14 13 13 13 13 12 9 8 11 9 9 7 5 4 5 5 3 5 6 4 7 8 9 6 11 14 15 15 14 14 14
15 16 17 15 12 10 11 10 12 14 16 17 13 12 10 4 5 7 9 8 7 8 7 6 3 4 5 8 5 6 5 5 4 7 7 11 10 12 13 13 13 12 12
11 17 12 16 14 14 11 9 9 11 9 8 8 4 6 4 3 3 7 7 6 7 6 5 4 5 7 3 4 6 3 4 8 2 6 13 11 13 12 12 12 12 12
18 13 13 9 11 14 9 7 6 5 7 6 10 6 4 4 3 2 2 1 1 7 4 5 3 2 2 4 1 4 4 1 6 2 9 12 12 13 12 11 11 12 12
15 13 20 12 5 8 5 6 7 4 6 7 9 9 6 3 3 2 2 4 5 4 4 5 2 1 3 5 5 5 1 3 6 7 8 13 13 12 13 11 11 11 11
15 11 14 12 6 10 5 2 3 4 4 5 8 5 3 5 5 4 4 3 3 4 3 3 6 5 4 5 4 4 7 7 4 8 6 15 12 12 13 13 11 11 10
13 15 14 11 7 8 7 8 3 6 3 4 6 5 7 3 4 5 5 5 5 6 6 2 4 3 4 5 5 4 5 2 9 8 6 7 14 11 12 13 13 12 11
12 17 13 13 12 6 6 7 3 2 9 7 1 7 6 4 5 4 4 4 3 7 6 6 4 7 6 4 4 4 4 4 3 11 8 7 7 11 11 11 11 12 12
13 15 14 12 14 9 7 5 4 4 5 4 4 5 5 7 6 6 4 4 4 2 2 2 2 2 2 2 6 3 5 5 4 10 8 9 8 8 10 13 12 12 13
11 14 11 13 14 10 7 7 4 6 4 4 1 5 7 7 7 4 3 4 5 1 2 3 2 2 3 3 7 4 3 6 5 7 3 8 9 9 7 13 13 13 14
13 11 5 7 8 10 5 4 5 5 7 6 6 7 8 5 7 5 4 4 4 3 2 2 4 5 2 2 4 5 6 4 4 8 12 6 8 9 9 10 9 9 15
13 10 11 6 9 7 5 3 2 5 4 5 5 9 7 4 3 4 4 5 4 3 4 2 4 4 1 2 2 1 2 3 4 5 8 6 5 8 10 10 8 7 8
13 12 9 11 10 6 4 3 1 4 3 5 4 6 5 4 5 1 2 2 3 2 4 4 3 2 1 1 3 2 3 5 4 4 5 8 10 6 10 12 13 12 10
12 13 10 8 10 6 4 4 3 2 1 3 6 5 6 6 5 5 3 2 4 2 2 5 4 5 4 2 1 2 2 2 4 4 4 3 8 5 8 11 11 8 12
15 11 12 9 9 6 4 2 6 3 2 3 2 3 5 5 5 5 4 3 3 2 5 5 5 5 5 5 1 5 3 4 1 3 3 5 5 9 8 8 9 8 12
19 15 13 12 8 8 6 3 4 4 2 3 6 7 5 4 4 5 7 6 4 5 6 6 6 4 3 4 2 1 2 2 4 3 3 3 2 5 8 9 9 9 10
16 14 14 14 11 8 9 6 5 2 3 0 4 1 5 5 4 6 5 4 4 3 4 4 4 5 2 1 4 5 4 3 3 3 3 4 4 5 4 3 9 8 10
Wind_Direction
125 124 117 107 114 115 108 100 97 96 95 89 70 75 74 82 89 86 94 98 91 91 91 86 85 83 85 87 88 90 94 95 96 94 92 89 92 96 96 101 99 97 97
126 126 122 111 105 104 104 100 101 99 92 92 82 77 83 84 86 93 97 102 96 94 92 91 87 86 87 90 92 95 97 104 110 102 95 90 91 91 90 87 97 99 100
124 127 126 116 116 109 108 108 106 98 89 88 82 82 84 93 95 97 98 104 101 101 95 92 88 88 88 89 90 92 95 101 119 122 102 91 94 97 92 101 106 101 99
131 132 129 122 114 113 106 108 99 96 92 95 89 86 89 93 97 101 102 105 98 97 95 92 92 93 86 82 89 89 101 114 138 278 100 98 101 95 99 105 110 105 102
139 113 122 127 126 121 115 108 106 99 102 103 97 92 91 96 99 102 103 108 101 97 94 89 93 96 89 81 72 62 44 97 158 126 92 94 94 104 107 110 116 118 99
115 113 124 128 130 128 123 120 115 101 99 105 102 92 91 94 94 107 104 105 105 102 97 100 96 97 93 75 50 24 23 18 75 86 83 79 86 104 103 100 105 107 110
112 122 126 129 130 127 129 131 124 112 101 101 100 96 101 98 106 104 104 107 108 107 101 93 97 99 93 78 43 359 7 340 83 83 94 91 104 109 108 106 106 109 114
129 118 131 135 135 137 136 135 135 125 114 122 117 116 110 105 95 101 103 100 111 115 110 107 100 95 92 91 37 358 9 35 113 88 86 90 105 110 108 105 109 109 113
127 127 135 139 145 141 133 138 136 132 118 126 130 123 117 114 110 103 108 110 114 109 106 105 103 102 110 111 117 322 312 30 99 113 110 108 112 111 110 115 113 116 110
141 122 133 135 135 142 139 135 134 134 131 131 127 121 120 114 108 106 103 111 115 117 115 111 105 124 149 170 205 248 290 342 97 110 96 112 120 115 117 116 114 113 113
128 132 132 126 124 127 126 129 128 130 133 131 133 127 108 71 103 110 112 121 125 130 128 128 99 126 149 177 218 256 290 65 327 86 108 131 126 121 116 115 117 119 115
125 116 108 117 126 127 126 146 139 145 135 138 135 175 112 109 119 98 117 116 145 148 148 147 137 144 184 168 205 240 256 200 114 174 120 132 136 129 129 124 126 121 123
102 114 119 113 136 112 134 162 153 155 150 143 144 171 128 131 126 102 106 104 175 185 186 175 191 163 211 260 235 248 259 229 119 164 135 136 142 135 138 142 135 140 137
128 117 120 109 100 123 153 193 120 159 156 159 158 152 150 141 144 151 210 196 191 190 235 142 173 239 131 236 245 253 223 2 159 120 146 137 144 149 150 153 153 146 148
114 129 104 119 154 132 150 78 62 107 144 171 142 112 35 163 170 173 213 237 300 324 170 191 178 173 198 234 222 313 314 80 171 136 146 145 146 159 162 161 164 165 156
143 125 117 128 121 112 97 133 121 120 118 65 79 136 171 163 166 178 215 224 142 250 242 136 284 132 194 216 176 207 299 16 97 139 131 153 154 167 171 172 174 172 173
158 123 143 143 129 124 127 88 110 310 132 118 17 119 145 184 176 187 241 287 182 202 175 174 159 127 274 329 237 160 223 280 98 130 183 165 156 168 177 183 181 187 182
130 129 166 147 138 155 138 143 142 132 58 136 191 142 169 204 201 202 213 262 260 218 160 77 64 87 31 86 303 220 179 238 246 162 162 167 165 174 188 185 186 190 195
134 136 185 149 138 130 146 136 143 125 133 14 18 85 237 199 203 189 223 211 244 265 176 162 133 150 230 237 229 256 253 196 208 65 342 186 159 162 178 186 192 194 198
132 139 166 124 113 121 117 155 162 153 143 182 156 166 205 199 178 178 214 218 219 225 232 145 170 187 131 328 286 274 272 206 177 143 214 179 175 189 174 172 188 201 203
143 178 136 162 120 130 151 217 147 121 189 197 147 156 174 176 139 219 200 188 207 223 249 214 213 150 150 251 198 3 330 342 248 175 182 177 293 196 162 175 183 199 202
175 169 154 135 136 158 192 200 156 109 107 170 158 150 144 167 174 146 327 193 238 183 251 243 203 124 122 297 110 48 22 334 323 212 194 158 204 161 189 192 191 200 187
196 165 171 152 149 186 170 121 87 21 140 167 172 153 171 180 177 182 203 23 113 129 23 324 264 202 205 145 167 134 121 216 264 280 187 192 195 216 177 197 208 199 184
172 186 159 165 157 171 192 172 161 145 87 241 124 143 159 183 151 150 159 176 253 134 145 233 253 223 208 157 141 242 231 154 1 307 326 213 201 197 216 203 199 192 193
170 178 164 161 183 168 185 192 176 230 234 240 139 161 142 159 200 192 182 179 205 162 177 209 261 250 238 132 151 185 221 128 187 241 245 284 234 226 210 204 193 217 202
187 179 171 165 178 175 171 189 252 249 240 152 59 181 183 183 186 201 171 171 165 142 182 222 189 254 240 181 176 202 207 176 177 191 230 259 272 282 151 275 230 207 202